Regional Weather Roundup
Issued by NWS Northern Indiana

Home | Current Version | Previous Version | Graphics & Text | Print | Product List | Glossary On
Versions: 1 2 3 4 5 6 7 8 9 10 11 12 13 14 15 16 17 18 19 20 21 22 23 24 25 26 27 28 29 30 31 32 33 34 35 36 37 38 39 40 41 42 43 44 45 46 47 48 49 50
000
ASUS43 KIWX 310610
RWRIWX

KIWX WEATHER ROUNDUP
NATIONAL WEATHER SERVICE NORTHERN INDIANA
200 AM EDT TUE MAY 31 2016

NOTE: "FAIR" INDICATES FEW OR NO CLOUDS BELOW 12,000 FEET WITH NO
SIGNIFICANT WEATHER AND/OR OBSTRUCTIONS TO VISIBILITY.

* THESE STATIONS ARE NOT UNDER NWS QUALITY CONTROL. THEY ALSO MAY NOT
  REPORT WEATHER SUCH AS PRECIPITATION OR FOG.

INZ001>027-310700-
NORTHERN INDIANA

CITY           SKY/WX    TMP DP  RH WIND       PRES   REMARKS
GARY*          PTCLDY    67  64  90 NE6       29.99S
VALPARAISO     CLEAR     66  57  72 NE7       29.99F
6HR MIN TEMP:  64; 6HR MAX TEMP:  81;

MICHIGAN CITY* CLEAR     61  61 100 CALM      30.00S
LAPORTE*       CLEAR     70  58  67 NE5       30.00S
6HR MIN TEMP:  69; 6HR MAX TEMP:  81;

KNOX*          PTCLDY    64  50  59 E3        29.99S
SOUTH BEND     CLEAR     67  57  70 NE7       30.00S
6HR MIN TEMP:  66; 6HR MAX TEMP:  81;

GOSHEN         CLEAR     61  54  77 CALM      30.00S
6HR MIN TEMP:  59; 6HR MAX TEMP:  78;

MONTICELLO*    CLEAR     70  54  57 CALM      29.97S
6HR MIN TEMP:  70; 6HR MAX TEMP:  83;

LOGANSPORT*    CLEAR     70  55  60 E3        29.99S
ROCHESTER*     CLEAR     68  61  77 CALM      30.00S
WARSAW*        PTCLDY    63  57  82 CALM      30.00S
ANGOLA*          N/A     61  57  88 CALM      30.01S
FORT WAYNE     PTCLDY    68  54  60 CALM      30.00S
6HR MIN TEMP:  67; 6HR MAX TEMP:  81;

HUNTINGTON*    PTCLDY   N/A N/A N/A CALM      29.99S
MARION*        MOCLDY    66  57  72 CALM      30.00S
6HR MIN TEMP:  -1; 6HR MAX TEMP:  87;


$$
INZ028>050-310700-
CENTRAL INDIANA

CITY           SKY/WX    TMP DP  RH WIND       PRES   REMARKS
LAFAYETTE      PTCLDY    64  59  83 N3        29.98R
6HR MIN TEMP:  63; 6HR MAX TEMP:  81;

KOKOMO*        PTCLDY    70  54  56 CALM      29.99S
6HR MIN TEMP:  66; 6HR MAX TEMP:  82;

MUNCIE*        PTCLDY    68  57  68 CALM      29.99S
6HR MIN TEMP:  66; 6HR MAX TEMP:  85;

INDIANAPOLIS   PTCLDY    69  58  67 SW5       29.97F
6HR MIN TEMP:  68; 6HR MAX TEMP:  79;


$$
MIZ043>046-050>051-056>058-064>065-071>073-077>080-310700-
SOUTHWEST LOWER MICHIGAN

CITY           SKY/WX    TMP DP  RH WIND       PRES   REMARKS
BATTLE CREEK   PTCLDY    61  54  77 CALM      30.02S
6HR MIN TEMP:  61; 6HR MAX TEMP:  77;

BENTON HARBOR  CLEAR     60  55  83 CALM      29.99F
6HR MIN TEMP:  59; 6HR MAX TEMP:  79;

COLDWATER*     CLEAR     58  54  86 CALM      30.01S
6HR MIN TEMP:  58; 6HR MAX TEMP:  79;

HILLSDALE*     CLEAR     60  55  81 CALM      30.01S
6HR MIN TEMP:  60; 6HR MAX TEMP:  79;

HOLLAND        CLOUDY    58  55  90 CALM      30.01S
6HR MIN TEMP:  58; 6HR MAX TEMP:  77;

GRAND RAPIDS   CLEAR     62  55  77 CALM      30.01S
6HR MIN TEMP:  62; 6HR MAX TEMP:  79;

KALAMAZOO      CLEAR     62  55  77 CALM      30.01S
6HR MIN TEMP:  61; 6HR MAX TEMP:  78;

STURGIS*       CLEAR     64  56  76 NE7       30.00S
6HR MIN TEMP:  62; 6HR MAX TEMP:  79;

THREE RIVERS*  FAIR      62  57  84 CALM      30.01S
6HR MIN TEMP:  62; 6HR MAX TEMP:  80;


$$
OHZ001>008-015>018-024>025-310700-
NORTHWEST OHIO

CITY           SKY/WX    TMP DP  RH WIND       PRES   REMARKS
WAUSEON*         N/A     63  63 100 CALM      29.99F
DEFIANCE       CLEAR     65  54  67 CALM      29.99S
6HR MIN TEMP:  63; 6HR MAX TEMP:  84;

FINDLAY        CLEAR     64  53  67 CALM      29.97S
6HR MIN TEMP:  64; 6HR MAX TEMP:  83;

TOLEDO EXPRESS CLEAR     62  54  74 CALM      29.98F
6HR MIN TEMP:  62; 6HR MAX TEMP:  83;

TOLEDO METCALF PTCLDY    68  52  56 CALM      29.99S
6HR MIN TEMP:  68; 6HR MAX TEMP:  83;

LIMA           CLEAR     65  57  75 CALM      29.99S
6HR MIN TEMP:  64; 6HR MAX TEMP:  83;


$$
AND FOR LAKE MICHIGAN COASTAL AND OPEN LAKE BUOY OBSERVATIONS

STATION/POSITION TEMP    WIND        PRES    VSBY  WAVE
                 AIR SEA DIR/SP/G                  HT/PER
                 (F)     (DEG/KT/KT) (MB)    (MI)  (FT/S)
CALUMET HARBOR    64      20/  4/  6 1015.2R
MICHIGAN CITY     65      40/  6/  7   N/A
BURNS HARBOR      64      80/  8/  9 1016.3R
SAINT JOSEPH      66      CALM  /  2 1016.3R
SOUTH LAKE BUOY   61 57  130/  4/  4 1015.5F         0
4 MI NW BRIDGMAN  68 65   40/  6/  8   N/A           1
MICHIGAN CITY     64 62   60/  6/  6   N/A           1/ 2

$$
&&




USA.gov is the U.S. government's official web portal to all federal, state and local government web resources and services.